NDF4PM EDDH-LGTS

Flight info

Callsign NDF4PM
Flight time N/A
Altitude 35000
Route AMLUH3B AMLUH M852 DENIX DCT ZUCKA DCT ALOSO DCT ABERU T703 ARMUT DCT LULAR DCT DEXIT DCT BOSNA DCT AKIKA DCT ENFAR DCT PEP DCT TALAS N130 ALIKO ALIKO1P
Aircraft A321/M-SDE3FGHIRWY/LB1

Departure

Time 2026-05-04 06:40
Airport Hamburg Helmut Schmidt Airport (EDDH)

Arrival

Time N/A
Airport Thessaloniki Macedonia International Airport (LGTS)
Time Latitude Longitude Altitude Speed Heading
2026-05-04 06:20 53.63372 10.00336 49 ft 0 kts 86°
2026-05-04 06:30 53.63372 10.00326 48 ft 4 kts 86°
2026-05-04 06:30 53.63370 10.00281 48 ft 4 kts 86°
2026-05-04 06:31 53.63369 10.00241 48 ft 4 kts 84°
2026-05-04 06:31 53.63361 10.00205 45 ft 4 kts 28°
2026-05-04 06:31 53.63337 10.00198 48 ft 3 kts 356°
2026-05-04 06:31 53.63331 10.00198 48 ft 0 kts 356°
2026-05-04 06:35 53.63337 10.00198 48 ft 2 kts 356°
2026-05-04 06:36 53.63542 10.00110 50 ft 0 kts 321°
2026-05-04 06:37 53.63548 10.00101 50 ft 4 kts 321°
2026-05-04 06:37 53.63568 10.00075 51 ft 5 kts 321°
2026-05-04 06:37 53.63602 9.99998 51 ft 11 kts 282°
2026-05-04 06:37 53.63564 9.99890 51 ft 10 kts 231°
2026-05-04 06:38 53.63544 9.99848 50 ft 0 kts 231°
2026-05-04 06:40 53.59864 9.92260 1961 ft 163 kts 229°
2026-05-04 06:40 53.59090 9.90697 2186 ft 185 kts 229°
2026-05-04 06:40 53.58221 9.88935 2349 ft 207 kts 229°
2026-05-04 06:40 53.57236 9.87059 2678 ft 219 kts 218°
2026-05-04 06:41 53.55832 9.86215 3261 ft 218 kts 174°
2026-05-04 06:41 53.54438 9.87106 3908 ft 218 kts 144°
2026-05-04 06:41 53.53211 9.88622 4605 ft 219 kts 141°
2026-05-04 06:41 53.52112 9.90396 5268 ft 221 kts 123°
2026-05-04 06:42 53.51495 9.92776 5813 ft 231 kts 101°
2026-05-04 06:42 53.51399 9.95594 6067 ft 254 kts 90°
2026-05-04 06:42 53.51389 9.98648 6572 ft 266 kts 91°
2026-05-04 06:44 53.47294 10.17830 10558 ft 308 kts 117°